This demonstration page uses our WeatherBlox Daily Observations layout. Learn more.

Left ArrowRight Arrow

Hourly Observations for October 6, 2022

Temp ( °F °C ) Dew Point ( °F °C ) Humidity (%) Winds ( mph kmh ) Pressure ( in mb ) Visibility ( mi km ) Precip ( " mm )
12:15 am 00:15 Clear 51 10.5 46 8 84 84 Calm 30.20 1023 10 16 0.00 0.00
12:35 am 00:35 Clear 50 10.1 46 7.7 85 85 NW 5 7 30.20 1023 10 16 0.00 0.00
12:55 am 00:55 Clear 50 10 46 7.5 84 84 NW 3 6 30.20 1023 10 16 0.00 0.00
1:15 am 01:15 Clear 52 11.2 46 7.6 78 78 NW 5 7 30.19 1022 10 16 0.00 0.00
1:35 am 01:35 Clear 50 10.1 46 7.5 84 84 WNW 5 7 30.20 1023 10 16 0.00 0.00
1:55 am 01:55 Clear 51 10.3 45 7.4 82 82 WNW 3 6 30.20 1023 10 16 0.00 0.00
2:15 am 02:15 Clear 49 9.6 45 7.3 86 86 WNW 3 6 30.21 1023 10 16 0.00 0.00
2:35 am 02:35 Clear 49 9.5 45 7.2 86 86 WNW 3 6 30.21 1023 10 16 0.00 0.00
2:55 am 02:55 Clear 49 9.4 45 7.1 86 86 WNW 3 6 30.22 1023 10 16 0.00 0.00
3:15 am 03:15 Clear 50 9.8 45 7.3 84 84 WNW 6 9 30.21 1023 10 16 0.00 0.00
3:35 am 03:35 Clear 49 9.3 45 7 86 86 NW 5 7 30.22 1023 10 16 0.00 0.00
3:55 am 03:55 Clear 49 9.2 45 7 86 86 WNW 5 7 30.22 1023 10 16 0.00 0.00
4:15 am 04:15 Clear 49 9.6 45 7.1 84 84 WNW 5 7 30.22 1023 10 16 0.00 0.00
4:35 am 04:35 Clear 47 8.6 44 6.6 87 87 WNW 3 6 30.23 1024 10 16 0.00 0.00
4:55 am 04:55 Clear 47 8.6 44 6.7 88 88 NW 6 9 30.22 1023 10 16 0.00 0.00
5:15 am 05:15 Clear 48 9 44 6.7 85 85 WNW 5 7 30.21 1023 10 16 0.00 0.00
5:35 am 05:35 Clear 48 9 44 6.7 85 85 W 5 7 30.21 1023 10 16 0.00 0.00
5:55 am 05:55 Clear 49 9.2 44 6.8 85 85 WNW 5 7 30.22 1023 10 16 0.00 0.00
6:15 am 06:15 Clear 49 9.2 44 6.7 84 84 WNW 5 7 30.22 1023 10 16 0.00 0.00
6:35 am 06:35 Clear 48 8.8 44 6.6 86 86 NW 7 11 30.24 1024 10 16 0.00 0.00
6:55 am 06:55 Clear 48 8.7 44 6.5 86 86 NW 8 13 30.24 1024 10 16 0.00 0.00
7:15 am 07:15 Clear 48 9.1 44 6.8 85 85 NW 8 13 30.23 1024 10 16 0.00 0.00
7:35 am 07:35 Clear 49 9.6 45 7.2 85 85 NW 7 11 30.24 1024 10 16 0.00 0.00
7:55 am 07:55 Sunny 49 9.6 45 7.2 85 85 NW 8 13 30.24 1024 10 16 0.00 0.00
8:15 am 08:15 Sunny 50 10.1 46 7.5 84 84 NW 8 13 30.23 1024 10 16 0.00 0.00
8:35 am 08:35 Sunny 51 10.7 46 7.9 83 83 NW 7 11 30.24 1024 10 16 0.00 0.00
8:55 am 08:55 Sunny 53 11.5 47 8.3 81 81 NW 8 13 30.24 1024 10 16 0.00 0.00
9:15 am 09:15 Sunny 55 12.5 47 8.6 77 77 NW 8 13 30.24 1024 10 16 0.00 0.00
9:35 am 09:35 Sunny 57 13.8 48 8.9 72 72 NNW 8 13 30.24 1024 10 16 0.00 0.00
9:55 am 09:55 Sunny 58 14.6 48 9.1 70 70 NNW 10 17 30.23 1024 10 16 0.00 0.00
10:15 am 10:15 Sunny 59 15 49 9.3 69 69 N 12 19 30.23 1024 10 16 0.00 0.00
10:35 am 10:35 Sunny 60 15.5 49 9.6 68 68 N 15 24 30.24 1024 10 16 0.00 0.00
10:55 am 10:55 Sunny 61 16.3 49 9.7 65 65 N 16 26 30.24 1024 10 16 0.00 0.00
11:15 am 11:15 Sunny 63 17.2 50 10.1 63 63 N 15 24 30.23 1024 10 16 0.00 0.00
11:35 am 11:35 Sunny 64 17.5 51 10.3 63 63 N 13 20 30.23 1024 10 16 0.00 0.00
11:55 am 11:55 Sunny 64 18 51 10.5 62 62 N 16 26 30.22 1023 10 16 0.00 0.00
12:15 pm 12:15 Sunny 65 18.1 51 10.4 61 61 NNE 16 26 30.23 1024 10 16 0.00 0.00
12:35 pm 12:35 Sunny 64 18 51 10.4 61 61 NNE 15 24 30.23 1024 10 16 0.00 0.00
12:55 pm 12:55 Sunny 64 17.9 51 10.5 62 62 NNE 16 26 30.24 1024 10 16 0.00 0.00
1:15 pm 13:15 Sunny 65 18.4 51 10.6 60 60 NNE 16 26 30.23 1024 10 16 0.00 0.00
1:35 pm 13:35 Sunny 64 17.8 51 10.3 61 61 NE 13 20 30.24 1024 10 16 0.00 0.00
1:55 pm 13:55 Sunny 64 17.6 50 10.1 61 61 NNE 16 26 30.24 1024 10 16 0.00 0.00
2:15 pm 14:15 Sunny 64 17.9 49 9.7 59 59 NE 15 24 30.22 1023 10 16 0.00 0.00
2:35 pm 14:35 Sunny 64 18 50 9.9 59 59 NNE 17 28 30.22 1023 10 16 0.00 0.00
2:55 pm 14:55 Sunny 64 17.5 49 9.5 59 59 NE 18 30 30.23 1024 10 16 0.00 0.00
3:15 pm 15:15 Sunny 64 17.9 50 9.8 59 59 NNE 14 22 30.22 1023 10 16 0.00 0.00
3:35 pm 15:35 Sunny 64 17.5 49 9.2 58 58 NNE 15 24 30.24 1024 10 16 0.00 0.00
3:55 pm 15:55 Sunny 64 17.5 48 9 57 57 NNE 14 22 30.24 1024 10 16 0.00 0.00
4:15 pm 16:15 Sunny 64 17.5 47 8.6 56 56 NE 13 20 30.24 1024 10 16 0.00 0.00
4:35 pm 16:35 Sunny 64 17.5 48 8.8 57 57 NNE 16 26 30.24 1024 10 16 0.00 0.00
4:55 pm 16:55 Sunny 62 16.9 47 8.5 58 58 NE 14 22 30.24 1024 10 16 0.00 0.00
5:15 pm 17:15 Sunny 62 16.5 46 7.9 57 57 NNE 14 22 30.26 1025 10 16 0.00 0.00
5:35 pm 17:35 Sunny 62 16.5 45 7.1 54 54 NE 12 19 30.26 1025 10 16 0.00 0.00
5:55 pm 17:55 Sunny 62 16.4 45 7.3 55 55 NE 15 24 30.26 1025 10 16 0.00 0.00
6:15 pm 18:15 Sunny 61 16 45 7.2 56 56 NE 12 19 30.26 1025 10 16 0.00 0.00
6:35 pm 18:35 Sunny 60 15.7 45 7.1 57 57 NNE 10 17 30.27 1025 10 16 0.00 0.00
6:55 pm 18:55 Sunny 59 14.9 44 6.8 58 58 NNE 9 15 30.29 1026 10 16 0.00 0.00
7:15 pm 19:15 Clear 57 14 44 6.5 61 61 NNE 9 15 30.31 1026 10 16 0.00 0.00
7:35 pm 19:35 Clear 56 13.2 43 6.3 63 63 NNE 8 13 30.31 1027 10 16 0.00 0.00
7:55 pm 19:55 Clear 55 12.5 43 6.3 66 66 NNE 10 17 30.33 1027 10 16 0.00 0.00
8:15 pm 20:15 Clear 55 12.6 41 4.9 59 59 NNE 14 22 30.34 1027 10 16 0.00 0.00
8:35 pm 20:35 Clear 54 12 39 3.9 58 58 NNE 14 22 30.35 1028 10 16 0.00 0.00
8:55 pm 20:55 Clear 53 11.5 37 3 56 56 NNE 14 22 30.36 1028 10 16 0.00 0.00
9:15 pm 21:15 Clear 52 11 35 1.4 51 51 NNE 15 24 30.37 1029 10 16 0.00 0.00
9:35 pm 21:35 Clear 50 10.1 34 1.2 54 54 NNE 12 19 30.39 1029 10 16 0.00 0.00
9:55 pm 21:55 Clear 49 9.4 34 0.9 55 55 NNE 9 15 30.41 1030 10 16 0.00 0.00
10:15 pm 22:15 Clear 48 9 32 0 53 53 NE 13 20 30.41 1030 10 16 0.00 0.00
10:35 pm 22:35 Clear 47 8.6 31 -0.5 53 53 NE 13 20 30.43 1030 10 16 0.00 0.00
10:55 pm 22:55 Clear 47 8.1 31 -0.5 55 55 NNE 10 17 30.43 1030 10 16 0.00 0.00
11:15 pm 23:15 Clear 46 7.6 31 -0.3 57 57 NNE 10 17 30.44 1031 10 16 0.00 0.00
11:35 pm 23:35 Clear 45 7.2 31 -0.6 58 58 NNE 9 15 30.45 1031 10 16 0.00 0.00
11:55 pm 23:55 Clear 44 6.8 30 -0.9 58 58 NE 9 15 30.46 1032 10 16 0.00 0.00

Powered by AerisWeather